www.pogodaiklimat.ru

Погода и климат >> Архив погоды >> Иран >> Jask


ПОГОДА в Jask

  • Прогноз погоды в Jask
  • Монитор погоды в Jask
  • Климат города

АРХИВ ПОГОДЫ в Jask

Время (UTC), дата Ветер
(напр.,м/с)
 
Видим.   Явления Облачность Т
(С)
Тd
(С)
f
(%)
Тe
(С)
Тes
(С)
Комфортность P
(гПа)
Po
(гПа)
Тmin
(С)
Tmax
(С)
R
(мм)
R24
(мм)
S
(см)
18 16.06 З 2 4000 м дымка ясно +32.5 +29.6 85 +58 +58 опасность
перегрева
997.8 997.2
21 16.06 З 2 4000 м дымка ясно +32.4 +28.5 80 +54 +54 опасность
перегрева
997.4 996.9
00 17.06 СЗ 2 4000 м мгла ясно +32.3 +26.4 71 +49 +49 опасность
перегрева
996.9 996.4
03 17.06 СЗ 2 8000 м мгла ясно +31.8 +26.1 72 +48 +50 опасность
перегрева
997.7 997.2 +30.4
06 17.06 ЮЗ 3 10 км ясно +34.6 998.4 997.9
09 17.06 ЮЗ 4 8000 м мгла ясно +35.6 +24.5 53 +48 +63 опасность
перегрева
997.7 997.1
12 17.06 ЮЗ 3 8000 м мгла ясно +34.9 995.8 995.2
15 17.06 ЮЗ 7 8000 м мгла ясно +33.3 +26.4 67 +50 +50 опасность
перегрева
995.5 994.9 +35.8
18 17.06 З 3 7000 м мгла ясно +32.3 +26.5 72 +49 +49 опасность
перегрева
997.6 997.0
21 17.06 З 2 6000 м мгла ясно +32.0 +26.0 71 +48 +48 опасность
перегрева
997.2 996.7
00 18.06 штиль 0 6000 м мгла ясно +30.7 +24.8 71 +44 +44 опасность
перегрева
996.8 996.3
03 18.06 штиль 0 6000 м мгла ясно +31.4 +25.5 71 +46 +50 опасность
перегрева
998.0 997.4 +29.9
06 18.06 ЮЗ 2 6000 м мгла ясно +34.6 998.6 998.0
09 18.06 Ю 3 8000 м мгла ясно +35.4 +26.6 61 +53 +70 опасность
перегрева
998.1 997.5
12 18.06 Ю 5 8000 м мгла ясно +33.8 996.8 996.3
15 18.06 ЮЗ 2 8000 м мгла ясно +32.7 +26.7 71 +50 +50 опасность
перегрева
997.0 996.5 +35.8
18 18.06 Ю 3 6000 м мгла ясно +31.6 +26.6 75 +49 +49 опасность
перегрева
998.2 997.7
21 18.06 З 2 6000 м мгла ясно +31.6 +25.9 72 +47 +47 опасность
перегрева
998.3 997.7
00 19.06 штиль 0 6000 м мгла ясно +31.0 +25.4 72 +45 +45 опасность
перегрева
998.3 997.8
03 19.06 В 2 8000 м мгла ясно +31.6 +26.2 73 +48 +50 опасность
перегрева
1000.0 999.5 +30.7
06 19.06 В 3 8000 м мгла ясно +34.2 1000.5 999.9
09 19.06 Ю 4 8000 м мгла ясно +34.9 +26.6 62 +52 +66 опасность
перегрева
999.9 999.3
12 19.06 Ю 4 8000 м мгла ясно +33.9 998.3 997.8
15 19.06 ЮЗ 2 6000 м мгла ясно +32.9 +27.6 74 +53 +53 опасность
перегрева
998.2 997.6 +34.9
18 19.06 З 3 5000 м дымка ясно +31.6 +27.7 80 +51 +51 опасность
перегрева
998.6 998.0
21 19.06 ЮЗ 3 5000 м дымка ясно +31.4 +28.4 84 +53 +53 опасность
перегрева
998.5 998.0
00 20.06 З 3 5000 м дымка ясно +31.0 +28.2 85 +52 +52 опасность
перегрева
998.6 998.0
03 20.06 СВ 3 5000 м дымка ясно +30.6 +28.1 87 +51 +53 опасность
перегрева
1000.1 999.6 +30.4
06 20.06 ЮВ 5 5000 м дымка ясно +33.6 1000.6 1000.0
09 20.06 Ю 2 6000 м мгла ясно +34.9 +30.2 77 +63 +84 опасность
перегрева
1000.1 999.5
12 20.06 ЮЗ 4 7000 м мгла ясно +35.5 998.0 997.5
15 20.06 З 3 8000 м мгла ясно +33.4 +28.2 74 +54 +54 опасность
перегрева
997.9 997.3 +35.7
18 20.06 СЗ 5 5000 м мгла ясно +33.8 +27.1 68 +52 +52 опасность
перегрева
998.5 998.0
21 20.06 З 6 4000 м мгла ясно +32.9 +27.0 71 +51 +51 опасность
перегрева
998.0 997.4
00 21.06 З 5 4000 м мгла ясно +32.6 +27.7 75 +52 +52 опасность
перегрева
997.7 997.1
03 21.06 З 5 6000 м мгла 4/0 2000 м
[Ac trans]
+32.9 +26.9 71 +51 +52 опасность
перегрева
998.9 998.4 +32.3
06 21.06 З 6 7000 м мгла ясно +35.4 999.3 998.8
09 21.06 З 9 5000 м пыльный позёмок ясно +36.2 +27.2 60 +55 +57 опасность
перегрева
997.6 997.1
12 21.06 З 9 3000 м пыльный позёмок ясно +35.7 995.8 995.3
15 21.06 СЗ 5 4000 м мгла ясно +36.0 +26.6 59 +53 +53 опасность
перегрева
995.9 995.4 +37.5
18 21.06 З 5 5000 м мгла ясно +34.7 +25.1 58 +49 +49 опасность
перегрева
996.8 996.3
21 21.06 З 7 5000 м мгла ясно +34.0 +23.5 54 +45 +45 опасность
перегрева
995.7 995.2
00 22.06 З 7 4000 м мгла ясно +34.6 +22.1 48 +43 +43 опасность
перегрева
995.7 995.1
03 22.06 В 3 6000 м мгла 4/0 2000 м
[Ac trans]
+31.7 +25.6 70 +46 +48 опасность
перегрева
997.4 996.8 +31.2
06 22.06 З 3 6000 м мгла ясно +34.9 997.6 997.1
09 22.06 Ю 5 7000 м мгла ясно +35.1 +28.6 69 +57 +69 опасность
перегрева
997.4 996.8
12 22.06 З 6 8000 м мгла ясно +38.4 995.2 994.7
15 22.06 З 6 7000 м мгла ясно +35.4 +25.9 58 +51 +51 опасность
перегрева
995.0 994.4 +38.2
18 22.06 З 3 4000 м мгла ясно +33.6 +27.5 71 +53 +53 опасность
перегрева
995.9 995.3
21 22.06 ЮЗ 5 4000 м мгла ясно +31.9 +27.7 79 +52 +52 опасность
перегрева
996.5 996.0
00 23.06 З 2 4000 м дымка ясно +30.8 +27.9 85 +51 +51 опасность
перегрева
995.6 995.0
03 23.06 В 6 5000 м дымка ясно +31.2 +29.3 90 +55 +56 опасность
перегрева
997.3 996.8 +30.6
06 23.06 ЮЗ 3 7000 м дымка ясно +33.3 998.3 997.7
09 23.06 З 6 8000 м мгла ясно +37.4 +31.7 73 +71 +79 опасность
перегрева
997.1 996.6
12 23.06 З 7 6000 м мгла ясно +36.6 995.5 995.0
15 23.06 З 4 6000 м мгла ясно +35.9 +26.2 57 +52 +52 опасность
перегрева
994.6 994.1 +38.3

 

Местоположение метеостанции Jask (Иран): широта 25.63 долгота 57.77 высота над уровнем моря 3 м.

В архиве по умолчанию представлена погода в Jask за последнюю неделю. Архивные данные за месяц целиком и за предыдущие месяцы, начиная с января 2011 года, Вы можете получить, выбрав интересующий диапазон дат из раскрывающегося списка и нажав кнопку "Ввод!".


*Определитесь, кто Вы:
робот инопланетянин человек

Внимание! Время в таблицах - всемирное. Для получения местного времени необходимо прибавить поправку, которая в Jask равна 3.5 ч.

Смотрите также архив погоды в соседних городах и на ближайших метеорологических станциях:

Погода в Diba (Оман) (152 км)
Погода в Fujairah (ОАЭ) (156 км)
Погода в Khasab Airport (Оман) (165 км)
Погода в Khasab (Оман) (166 км)
Погода в Sohar Majis (Оман) (173 км)
Погода в Ras Al Khaimah Int Airport (ОАЭ) (185 км)
Погода в Suwaiq (Оман) (208 км)
Погода в Bandarabbass (Иран) (225 км)
Погода в Sharjah (ОАЭ) (228 км)
Погода в Seeb (Оман) (234 км)

Пояснения к столбцам:

Ветер - указаны скорость ветра в м/с - средняя за 10 мин, порывы в срок и между сроками (в фигурных скобках) и направление, откуда дует ветер: С - северный, СВ - северо-восточный, В - восточный, ЮВ - юго-восточный, Ю - южный, ЮЗ - юго-западный, З - западный, СЗ - северо-западный.
Видимость - горизонтальная дальность видимости в метрах или километрах. При видимости от 1 до 10 км при отсутствии осадков обычно наблюдается дымка, при ухудшении видимости до 1 км и менее - туман. В сухую погоду видимость может ухудшаться дымом, пылью или мглою.
Явления - указаны атмосферные явления, наблюдавшиеся в срок или в последний час перед сроком; фигурными скобками обозначены явления, наблюдавшиеся между сроками (за 1-3 часа до срока); квадратными скобками обозначены град или гололедные отложения с указанием их диаметра в мм.
Облачность - указаны через наклонную черту общая и нижняя облачность в баллах и высота нижней границы облаков в метрах; квадратными скобками обозначены формы облаков: Ci - перистые, Cs - перисто-слоистые, Cc - перисто-кучевые, Ac - высококучевые, As - высокослоистые, Sc - слоисто-кучевые, Ns - слоисто-дождевые, Cu - кучевые, Cb - кучево-дождевые. Подробнее классификацию облаков см. в Атласе облаков (PDF).
T - Температура воздуха - температура, измеренная на высоте 2 м над землей.
Td - Температура точки росы - температура, при понижении до которой содержащийся в воздухе водяной пар достигнет насыщения.
f - Относительная влажность воздуха - влажноcть воздуха, измеренная на высоте 2 м над землей.
Te - Эффективная температура - температура, которую ощущает одетый по сезону человек в тени. Характеристика душности погоды. При расчете учитывается влияние влажности воздуха и скорости ветра на теплоощущения человека.
Tes - Эффективная температура на солнце - температура, которую ощущает человек, с поправкой на солнечный нагрев. Характеристика знойности погоды. Зависит от высоты солнца над горизонтом, облачности и скорости ветра. Ночью, в пасмурную погоду, а также при ветре 12 м/с и более поправка равна нулю.
P - Атмосферное давление - приведенное к уровню моря атмосферное давление.
Po - Атмосферное давление - измеренное на уровне метеостанции атмосферное давление.
Tmin - Минимальная температура - минимум температуры воздуха на высоте 2 м над землей.
Tmax - Максимальная температура - максимум температуры воздуха на высоте 2 м над землей.
R - Количество осадков - Количество выпавших осадков за период времени, мм. При наведении курсора мыши на число - период времени, за который выпало указанное количество осадков.
R24 - Количество осадков - Количество выпавших осадков за 24 часа, мм.
S - Снежный покров - Высота снежного покрова, см. При наведении курсора мыши на число - состояние снежного покрова и степень покрытия местности в баллах.